map of NRT home
NRT - Airport
Location
City:  Tokyo, Chiba, Japan
Near (Alt.):Narita
Name:New Tokyo International Airport
ICAO:RJAA
IATA:NRT

Details
Type:Airport (Aerodrome, Airfield)
Use:Public/Civil, International (customs port of entry)
Latitude:35°45'55"N (35.765278)
Longitude:140°23'08"E (140.385556)
Elevation:135 ft (41 m)
Variation:7.39°W (WMM2015 magnetic declination)
-0.06° annual change
Runways:2
Longest:13123 × 197 ft (4000 × 60 m), paved

Time
Time Zone:UTC+9
Local Time:

Weather
METAR:RJAA 251300Z 25003KT 9999 FEW020 FEW030CB BKN180 BKN/// 21/19 Q1015 NOSIG RMK 1CU020 1CB030 5AC180 A2999 LIGHTNING 40KM W MOV S
TAF:RJAA 251105Z 2512/2618 14004KT 9999 FEW020 SCT040
TEMPO 2512/2514 4000 -TSRA BR FEW010 BKN020 FEW020CB

Related Locations
Nearby:
Farthest:SNPV: 11718 mi / 18858 km
Mostardas [Solidão], RS, BR

Find:

   beyond  
but within

Other Information
Maps:
NOTAMs:
Links:
Sources:

  
flag of Japan
flag of Chiba
  

Sectional Chart

Flight Planning
at skyvector.com

Satellite Image

Google Maps Satellite view

 

Copyright © 2004-2017 Karl L. Swartz. All rights reserved.
The Great Circle Mapper name and logo are trademarks of the Great Circle Mapper.
All other trademarks mentioned herein belong to their respective owners.
Please see credits for attibutions and further copyright information.

  Follow gcmap on Facebook Follow gcmap on Twitter Follow gcmap on Google+ GCmap on LinkedIn

hCard Microformat

Geo Microformat